This is the latest recevied weather packets stored in our database for station/object WB6ANP. If no packets are shown the sender has not sent any weather packets the latest 1 day(s).
| Time | Temp. | Humidity | Pressure | Rain* | Wind** | Luminosity | Snow |
|---|---|---|---|---|---|---|---|
| 1778030262 | 20° C | 69% | 1007 hPa | 0 mm | 1.79 m/s, 59° | 1 W/m² | - |
| 1778029958 | 20° C | 68% | 1007 hPa | 0 mm | 2.24 m/s, 18° | 3 W/m² | - |
| 1778029657 | 20° C | 68% | 1006.8 hPa | 0 mm | 1.34 m/s, 35° | 6 W/m² | - |
| 1778029354 | 20.56° C | 68% | 1006.3 hPa | 0 mm | 1.79 m/s, 41° | 11 W/m² | - |
| 1778029051 | 20.56° C | 68% | 1006 hPa | 0 mm | 1.79 m/s, 80° | 14 W/m² | - |
| 1778028748 | 20.56° C | 67% | 1005.8 hPa | 0 mm | 0.89 m/s, 77° | 16 W/m² | - |
| 1778028443 | 20.56° C | 67% | 1006 hPa | 0 mm | 2.68 m/s, 335° | 14 W/m² | - |
| 1778028141 | 21.11° C | 66% | 1005.8 hPa | 0 mm | 2.24 m/s, 24° | 13 W/m² | - |
| 1778027837 | 21.11° C | 66% | 1005.7 hPa | 0 mm | 4.02 m/s, 13° | 18 W/m² | - |
| 1778027534 | 21.11° C | 66% | 1006.1 hPa | 0 mm | 4.02 m/s, 34° | 22 W/m² | - |
| 1778027229 | 21.67° C | 65% | 1006 hPa | 0 mm | 3.58 m/s, 22° | 19 W/m² | - |
| 1778026926 | 21.67° C | 65% | 1005.6 hPa | 0 mm | 1.34 m/s, 62° | 23 W/m² | - |
| 1778026622 | 21.67° C | 64% | 1005.5 hPa | 0 mm | 1.34 m/s, 3° | 20 W/m² | - |
| 1778026319 | 21.67° C | 63% | 1005.5 hPa | 0 mm | 2.24 m/s, 10° | 22 W/m² | - |
| 1778026016 | 21.67° C | 63% | 1005.6 hPa | 0 mm | 0.89 m/s, 43° | 21 W/m² | - |
| 1778025714 | 22.22° C | 63% | 1005.9 hPa | 0 mm | 0.89 m/s, 113° | 23 W/m² | - |
| 1778025411 | 22.22° C | 62% | 1005.8 hPa | 0 mm | 1.79 m/s, 54° | 37 W/m² | - |
| 1778025109 | 22.22° C | 62% | 1005.7 hPa | 0 mm | 2.68 m/s, 11° | 41 W/m² | - |
| 1778024805 | 22.78° C | 62% | 1005.7 hPa | 0 mm | 1.79 m/s, 22° | 53 W/m² | - |
| 1778024502 | 22.78° C | 61% | 1005.7 hPa | 0 mm | 1.79 m/s, 9° | 72 W/m² | - |
| 1778024199 | 23.33° C | 61% | 1005.4 hPa | 0 mm | 2.24 m/s, 107° | 102 W/m² | - |
| 1778023897 | 23.33° C | 62% | 1005.5 hPa | 0 mm | 0.89 m/s, 83° | 113 W/m² | - |
| 1778023594 | 23.89° C | 61% | 1005.6 hPa | 0 mm | 1.34 m/s, 1° | 139 W/m² | - |
| 1778023292 | 23.89° C | 60% | 1005.3 hPa | 0 mm | 2.24 m/s, 18° | 155 W/m² | - |
| 1778022988 | 24.44° C | 59% | 1005.4 hPa | 0 mm | 4.47 m/s, 29° | 120 W/m² | - |
* Rain latest hour (hover to see other rain measurements)
** Current wind speed in m/s (hover to see current wind gust speed)